Regional Weather Roundup
Issued by NWS

Home | Current Version | Previous Version | Text Only | Print | Product List | Glossary On
Versions: 1 2 3 4 5 6 7 8 9 10 11 12 13 14 15 16 17 18 19 20 21 22 23 24 25 26 27 28 29 30 31 32 33 34 35 36 37 38 39 40 41 42 43 44 45 46 47 48 49 50
000
ASUS44 KOUN 230110
RWROK

WEATHER ROUNDUP FOR OKLAHOMA
NATIONAL WEATHER SERVICE NORMAN OK
800 PM CDT TUE MAY 22 2018

NOTE: "FAIR" INDICATES FEW OR NO CLOUDS BELOW 12,000 FEET WITH NO
      SIGNIFICANT WEATHER AND/OR OBSTRUCTIONS TO VISIBILITY.

OKZ001>007-009>012-014-015-017-230200-
NORTHWEST OKLAHOMA AND THE PANHANDLE

CITY           SKY/WX    TMP DP  RH WIND       PRES   REMARKS
GAGE           CLEAR     83  55  38 S15       29.93S
GUYMON         CLEAR     82  54  37 SE20G29   29.89S
ENID/WOODRING  MOCLDY    84  66  54 SE9       29.93R
$$

OKZ016-021>023-033>039-044-045-230200-
SOUTHWEST OKLAHOMA

CITY           SKY/WX    TMP DP  RH WIND       PRES   REMARKS
LAWTON/REGL    CLEAR     81  66  60 SE7       29.93R
LAWTON/FT SILL CLEAR     80  69  68 SE8       29.93R
FREDERICK      CLOUDY    84  65  52 SE17      29.90R
CLINTON        PTCLDY    82  59  45 SE12      29.96S
HOBART         CLOUDY    82  63  52 SE9       29.95R
ALTUS AFB      CLOUDY    83  62  48 SE10      29.92S
$$

OKZ018>020-024>031-230200-
CENTRAL OKLAHOMA

CITY           SKY/WX    TMP DP  RH WIND       PRES   REMARKS
OKLAHOMA CITY  MOCLDY    80  65  59 S8        29.95R
OKC/WILEY POST CLEAR     83  64  52 SE9       29.95R
OKC/TINKER AFB CLEAR     80  67  63 SE7       29.96R
STILLWATER     CLEAR     83  64  52 SE9       29.94S
GUTHRIE        CLEAR     82  67  60 SE6       29.95R
$$

OKZ008-013-054>072-230200-
NORTHEAST OKLAHOMA

CITY           SKY/WX    TMP DP  RH WIND       PRES   REMARKS
TULSA          PTCLDY    81  66  60 SE6       29.93S
TULSA/JONES    CLEAR     86  65  49 S5        29.95R
PONCA CITY     CLEAR     83  64  52 SE9       29.94R
BARTLESVILLE   CLEAR     83  65  54 E7        29.96R
MUSKOGEE       CLOUDY    79  71  76 SE8       29.98R
$$

OKZ032-040>043-046>053-073>077-230200-
SOUTH CENTRAL/SOUTHEAST OKLAHOMA

CITY           SKY/WX    TMP DP  RH WIND       PRES   REMARKS
ARDMORE/DWNTWN CLEAR     79  64  61 CALM      29.94R
MCALESTER      CLOUDY    77  66  68 VRB5      29.98S
$$





USA.gov is the U.S. government's official web portal to all federal, state and local government web resources and services.